STARLINK-11483, 62223

Orbit data source: Space-Track

STARLINK-11483, 62223 is a payload satellite owned by SpaceX/Seattle (US) in LEO that was launched on Thu, 05 Dec 2024 UTC via an FALCON 9 launch vehicle from the Air Force Western Test Range (AFWTR). Payloads include a variety of satellites, spacecraft, and rockets equipped with specific instruments for various scientific and technological missions. These include communications satellites like Starlink; space stations such as the ISS; scientific satellites like the Hubble; Earth observation satellites from companies like Planet Labs, Umbra, and HawkEye 360; GPS; miniature CubeSats for education and research; and military/defense satellites.

Loading next visibility...
STARLINK-11483 details
Identifier
62223, 2024-231F
Orbit
LEO
Last TLE update7 hours ago
Origin
Flag of USSpaceX/Seattle (US)
ManufacturerSpaceX/Seattle
MissionOperational spacecraft
Bus & MotorSTARLINK V2M, Unknown motor
Mass730 kg wet, ~700 kg dry
Launch date (UTC)
2024-12-05 (2 months ago)
Launch vehicle
FALCON 9
Launch site
Air Force Western Test Range (AFWTR)
Object type
Payload
Rocket body
Debris
Shape & HBRUnknown
Radar Cross SectionLarge (>1 m²)

Expand to show TLE details & history

TLE from 7 hours ago
0 STARLINK-11483
1 62223U 24231F   25025.58334491  .00029535  00000-0  24802-3 0  9991
2 62223  53.1585 312.8214 0001077  99.4519  36.1968 15.69685516  5894
Epoch: 2025-01-25T14:00Z
Definitive object data (Epoch: 2025-01-25T14:00:01Z)
Latitude34.12449°
Longitude127.36366°
Altitude361.624 km
Speed7.697 km/s
True Right ascension06h 49m 59s
True Declination33° 57' 20"
Sunlit
Object was in full shadow at TLE epoch
Visualization TLE readout
Latitude-53.3112°
Longitude-113.09055°
Altitude378.988 km
Speed7.682 km/s
Apparent Right ascension12h 09m 28s
Apparent Declination-52° 27' 06"
Sunlit
Object is in daylight
Visualization observer readout
Local Sidereal Time22:02:12
Azimuth229.357° WSW
Elevation-64.948°
Doppler factor1
Orbital elements
Apogee altitude360.783 km
Perigee altitude359.332 km
Semi-major axis6,738.195 km
Eccentricity0.0001077
Inclination53.1585°
RAAN312.8214°
Arg. of periapsis99.4519°
True anomaly36.20409°
Mean anomaly36.1968°
Eccentric anomaly36.20044°
Mean motion3.92399 °/min
BSTAR0.00024802
Orbital period91.74 mins
Loading maneuver chart data...
Loading historical data...
Loading historical data...
Loading historical data...
Loading historical data...
Loading historical data...
Loading historical data...
Loading historical data...

STARLINK-11483 Visibility forecast

Observer location: undefined°, undefined

Span
Click to sort rows by Start time (UTC) header in descending order
Start Az.
Max El. time (UTC)
Max El. Az.
Max El.
End time (UTC)
End Az.
4 mins2025-01-25 21:14:03.723Z184.912° SSW2025-01-25 21:16:03.723Z128.018° SE24.225°2025-01-25 21:18:03.723Z77.216° E
|